Location: Brahman Valley
(40.6513°N, 111.8855°W)
Time: 08:30:43
(UTC+00:00)

Tiros 1 despin weight - Pass Details

Date: 21 May 2021
Orbit: 594 x 641 km, 48.2° (Epoch: 22 June)

Event Time Altitude Azimuth Distance (km) Brightness Sun altitude
Rises 23:55:58 0° 218° (SW) 2,871 ? 29.5°
Reaches altitude 10° 23:58:20 10° 211° (SSW) 1,977 ? 29.0°
Maximum altitude 00:02:38 42° 141° (SE) 893 ? 28.2°
Drops below altitude 10° 00:07:00 10° 71° (ENE) 2,013 ? 27.4°
Sets 00:09:26 0° 64° (ENE) 2,930 ? 26.9°
